Temp
82 81 81 79 79 79 80 80 80 81 81 81 81 83 84 85 86 86 85 84 83 84 85 83 82 82 85 84 82 82 82 82 82 82 81 82 82 82 83 82 81 80
82 81 81 82 80 80 79 79 81 81 81 79 82 85 84 85 86 86 87 86 84 85 85 84 83 82 83 84 83 81 80 80 81 83 81 81 82 82 82 82 79 74
83 81 82 82 83 82 82 83 82 82 83 84 84 84 86 88 87 87 87 87 86 87 85 83 82 82 83 83 81 80 80 79 80 82 80 81 78 77 79 78 75 75
83 84 84 85 84 83 84 84 84 84 85 86 86 88 88 89 87 86 84 85 84 83 83 82 82 82 81 81 79 78 79 78 79 79 78 78 77 76 76 75 75 74
85 85 85 84 83 83 83 84 85 86 86 86 87 86 85 83 84 85 84 83 81 81 80 81 81 81 80 79 78 77 77 77 74 74 74 73 73 75 75 75 74 73
85 85 84 83 83 83 83 85 86 86 85 85 86 86 84 82 80 80 80 80 81 79 79 79 79 79 80 77 75 73 73 72 72 72 72 72 72 72 73 73 73 72
86 85 83 84 83 82 82 84 85 84 83 83 80 80 80 81 80 80 80 80 81 80 79 78 77 77 78 76 74 72 71 71 71 71 71 71 71 70 71 72 71 71
84 83 83 80 81 84 85 84 81 81 81 81 81 79 81 81 80 80 79 79 79 78 77 76 75 74 75 75 74 72 72 72 71 70 70 70 70 70 71 71 71 70
81 80 79 80 81 80 80 80 81 80 80 80 79 80 80 80 79 79 78 77 75 74 73 72 71 71 71 71 70 71 71 71 70 70 70 71 71 71 71 70 70 69
78 79 78 78 78 79 80 80 79 79 79 79 79 79 79 78 78 77 76 74 72 71 70 69 69 69 68 68 68 68 68 68 68 68 69 69 69 70 70 70 69 69
77 78 78 79 79 78 78 78 78 78 78 77 77 77 77 77 77 76 74 72 70 69 68 67 67 67 66 66 67 67 68 68 68 68 67 67 67 67 69 68 68 67
77 78 78 78 78 77 77 77 77 76 76 76 76 75 75 75 75 74 72 70 69 68 67 66 66 66 65 65 65 65 66 66 66 66 66 66 66 66 66 66 66 66
77 77 77 77 76 76 76 76 75 75 75 74 75 74 74 73 72 70 69 68 67 67 66 66 65 65 64 64 63 63 63 63 63 63 63 64 64 65 65 65 66 66
77 77 76 76 76 75 75 74 74 74 74 74 74 73 73 72 70 68 68 67 66 66 65 65 64 64 64 63 62 62 62 61 61 62 62 62 63 64 64 65 65 66
76 76 76 75 75 74 74 73 73 73 73 73 73 72 72 71 69 67 65 64 64 64 63 64 64 64 65 64 63 63 62 62 61 62 61 61 62 62 63 63 64 65
75 75 74 74 73 72 72 72 72 72 72 71 71 70 70 69 67 66 64 63 62 62 62 63 63 64 67 67 67 65 62 61 61 61 60 60 61 61 61 62 63 63
73 72 72 72 72 72 71 71 71 71 70 70 69 69 68 68 66 64 63 63 62 62 61 62 62 64 65 65 65 66 64 61 60 59 60 60 60 59 60 61 62 62
72 72 71 71 71 70 70 70 70 69 68 68 67 67 67 67 65 64 63 63 62 61 61 61 62 65 63 64 64 64 66 62 59 59 60 60 60 60 60 61 61 62
71 71 70 70 69 69 69 69 68 67 67 66 66 66 66 65 64 64 63 62 62 60 60 61 60 64 63 63 63 63 64 63 59 59 59 59 59 60 60 60 60 61
71 70 69 69 69 68 68 67 67 66 66 66 66 65 64 63 63 62 62 61 61 60 59 59 59 63 62 62 62 62 63 63 59 59 59 59 59 59 60 60 60 60
70 69 68 68 67 67 66 66 66 65 65 65 64 64 63 62 62 62 63 62 61 59 59 58 60 63 61 62 61 61 62 62 58 59 58 58 59 60 61 61 60 61
69 68 67 67 66 66 65 65 65 64 64 65 64 62 62 62 62 62 61 60 60 59 58 58 59 62 61 61 61 60 62 60 57 58 57 58 58 60 62 62 62 63
68 67 67 66 66 65 64 64 64 63 63 64 62 61 61 61 61 61 61 61 61 60 58 57 59 61 60 60 60 60 61 57 57 57 57 57 58 60 61 63 63 63
68 67 66 66 65 64 64 63 63 63 63 65 62 61 61 61 61 61 61 62 61 60 61 59 58 62 61 59 59 59 61 57 56 56 57 58 58 60 62 63 64 66
67 67 66 65 64 64 64 64 63 64 64 63 62 62 62 62 63 60 60 60 61 61 66 60 57 61 61 58 59 58 59 58 56 55 56 57 58 59 61 62 63 64
67 67 65 65 64 64 64 64 64 63 62 62 62 62 61 60 61 60 58 58 59 58 61 59 59 58 61 58 58 58 59 59 56 56 56 57 57 60 60 61 62 63
MSLP
1011.29 1011.49 1011.65 1011.77 1011.85 1011.85 1011.89 1011.97 1011.89 1011.97 1011.89 1011.81 1011.93 1011.77 1011.69 1011.25 1011.01 1011.05 1011.01 1011.01 1011.05 1011.05 1010.97 1010.93 1010.93 1011.01 1010.97 1010.97 1011.01 1011.09 1011.17 1011.13 1011.01 1010.85 1010.85 1010.85 1010.93 1010.89 1010.93 1010.85 1010.77 1010.93
1011.21 1011.29 1011.37 1011.49 1011.61 1011.53 1011.57 1011.57 1011.65 1011.73 1011.65 1011.49 1011.33 1011.09 1010.85 1010.77 1010.57 1010.53 1010.61 1010.69 1010.69 1010.73 1010.53 1010.57 1010.61 1010.69 1010.73 1010.81 1010.81 1011.01 1011.05 1010.97 1010.97 1010.49 1010.73 1010.77 1010.73 1010.61 1010.65 1010.45 1010.61 1011.65
1011.05 1011.25 1011.37 1011.57 1011.53 1011.41 1011.29 1011.17 1011.29 1011.29 1011.29 1011.01 1010.85 1010.77 1010.65 1010.37 1010.41 1010.21 1010.21 1010.33 1010.45 1010.41 1010.37 1010.33 1010.45 1010.45 1010.49 1010.53 1010.57 1010.81 1010.93 1010.93 1010.89 1010.49 1010.61 1010.77 1010.65 1010.77 1010.57 1010.57 1010.69 1010.77
1010.85 1010.89 1011.05 1011.09 1011.13 1011.13 1010.97 1011.09 1011.05 1010.97 1010.85 1010.89 1010.69 1010.33 1010.37 1010.33 1010.37 1010.45 1010.41 1010.33 1010.41 1010.37 1010.25 1010.29 1010.37 1010.37 1010.41 1010.45 1010.57 1010.73 1010.73 1010.73 1010.61 1010.61 1010.81 1010.73 1010.77 1010.89 1011.05 1010.93 1011.01 1011.45
1010.57 1010.73 1010.69 1010.77 1010.73 1010.69 1010.73 1010.93 1010.93 1010.77 1010.73 1010.57 1010.45 1010.45 1010.53 1010.45 1010.33 1010.25 1010.17 1010.09 1010.13 1010.25 1010.25 1010.33 1010.33 1010.37 1010.29 1010.33 1010.45 1010.73 1010.69 1010.73 1010.89 1010.93 1011.05 1011.17 1011.29 1011.25 1011.09 1011.09 1011.37 1011.61
1010.33 1010.33 1010.41 1010.53 1010.45 1010.53 1010.77 1010.85 1010.65 1010.61 1010.69 1010.73 1010.57 1010.33 1010.29 1010.21 1010.21 1010.17 1010.17 1010.25 1010.25 1010.33 1010.49 1010.61 1010.77 1010.73 1010.57 1010.61 1010.73 1010.93 1011.13 1011.29 1011.53 1011.41 1011.49 1011.65 1011.65 1011.33 1011.21 1011.41 1011.65 1011.97
1010.25 1010.25 1010.33 1010.17 1010.29 1010.41 1010.61 1010.49 1010.45 1010.49 1010.41 1010.37 1010.33 1010.57 1010.45 1010.53 1010.61 1010.57 1010.45 1010.41 1010.45 1010.61 1010.93 1011.17 1011.29 1011.29 1011.17 1011.25 1011.33 1011.45 1011.45 1011.53 1011.73 1011.69 1011.73 1011.73 1011.77 1011.65 1011.49 1011.57 1011.69 1012.05
1009.93 1009.93 1010.01 1010.13 1010.33 1010.33 1010.41 1010.53 1010.57 1010.57 1010.53 1010.49 1010.73 1010.73 1010.57 1010.73 1010.73 1010.73 1010.69 1010.77 1010.93 1011.13 1011.33 1011.53 1011.65 1011.73 1011.65 1011.53 1011.77 1011.89 1011.85 1011.81 1012.01 1012.05 1011.93 1011.85 1011.73 1011.77 1011.49 1011.45 1011.65 1011.89
1009.81 1010.05 1010.05 1010.13 1010.33 1010.49 1010.65 1010.77 1010.81 1010.77 1010.65 1010.81 1010.97 1011.01 1010.89 1010.89 1011.05 1011.09 1011.17 1011.25 1011.57 1011.89 1012.05 1012.21 1012.33 1012.37 1012.33 1012.29 1012.37 1012.41 1012.41 1012.25 1012.17 1012.21 1012.17 1012.05 1012.01 1011.89 1011.77 1011.61 1011.65 1011.69
1010.05 1010.01 1010.25 1010.49 1010.81 1010.89 1011.05 1011.09 1011.09 1011.13 1011.01 1011.09 1011.13 1011.09 1011.25 1011.25 1011.25 1011.37 1011.49 1011.81 1012.17 1012.49 1012.69 1012.81 1012.89 1012.93 1012.93 1012.89 1012.89 1012.89 1012.85 1012.73 1012.53 1012.49 1012.49 1012.41 1012.33 1012.21 1012.01 1011.81 1011.73 1011.69
1010.33 1010.41 1010.57 1010.81 1011.05 1011.13 1011.33 1011.33 1011.37 1011.41 1011.37 1011.45 1011.45 1011.57 1011.57 1011.61 1011.69 1011.73 1012.09 1012.41 1012.77 1013.05 1013.21 1013.29 1013.37 1013.37 1013.41 1013.37 1013.29 1013.17 1013.09 1013.01 1012.89 1012.69 1012.57 1012.49 1012.41 1012.33 1012.13 1012.05 1011.89 1011.81
1010.77 1010.85 1011.01 1011.13 1011.25 1011.37 1011.49 1011.53 1011.57 1011.65 1011.73 1011.73 1011.73 1011.89 1011.93 1012.01 1012.21 1012.41 1012.69 1013.05 1013.25 1013.41 1013.53 1013.65 1013.65 1013.69 1013.69 1013.73 1013.61 1013.45 1013.33 1013.21 1013.09 1012.93 1012.73 1012.57 1012.37 1012.21 1012.13 1012.01 1011.97 1011.85
1010.93 1011.01 1011.05 1011.21 1011.33 1011.49 1011.53 1011.69 1011.85 1011.93 1011.97 1012.13 1012.05 1012.13 1012.29 1012.49 1012.69 1012.97 1013.21 1013.37 1013.61 1013.69 1013.77 1013.85 1013.89 1013.85 1013.89 1013.85 1013.77 1013.61 1013.49 1013.33 1013.17 1012.97 1012.81 1012.65 1012.45 1012.29 1012.09 1011.97 1011.85 1011.77
1010.93 1011.01 1011.17 1011.29 1011.41 1011.57 1011.77 1011.93 1012.05 1012.17 1012.25 1012.29 1012.29 1012.49 1012.69 1012.85 1013.13 1013.41 1013.61 1013.69 1013.89 1013.93 1014.01 1013.97 1013.97 1013.93 1013.89 1013.85 1013.77 1013.65 1013.49 1013.29 1013.13 1012.97 1012.81 1012.65 1012.49 1012.29 1012.09 1011.97 1011.81 1011.65
1010.89 1011.05 1011.17 1011.33 1011.53 1011.77 1011.97 1012.21 1012.37 1012.45 1012.57 1012.65 1012.73 1012.89 1013.01 1013.21 1013.45 1013.69 1013.93 1014.13 1014.17 1014.21 1014.21 1014.13 1014.05 1014.01 1013.89 1013.81 1013.69 1013.53 1013.41 1013.29 1013.13 1012.97 1012.85 1012.73 1012.57 1012.41 1012.25 1012.09 1011.93 1011.77
1011.01 1011.21 1011.41 1011.53 1011.81 1012.09 1012.29 1012.45 1012.57 1012.77 1012.89 1013.05 1013.21 1013.29 1013.45 1013.61 1013.81 1014.01 1014.17 1014.33 1014.41 1014.41 1014.33 1014.25 1014.21 1014.13 1014.05 1013.93 1013.77 1013.61 1013.41 1013.29 1013.21 1013.09 1012.97 1012.89 1012.77 1012.61 1012.45 1012.25 1012.09 1011.93
1011.17 1011.49 1011.61 1011.89 1012.09 1012.25 1012.45 1012.65 1012.85 1013.01 1013.17 1013.41 1013.57 1013.69 1013.81 1013.89 1014.09 1014.29 1014.37 1014.41 1014.41 1014.45 1014.53 1014.53 1014.53 1014.41 1014.29 1014.09 1013.85 1013.57 1013.37 1013.37 1013.33 1013.21 1013.05 1012.93 1012.81 1012.69 1012.57 1012.33 1012.13 1011.93
1011.41 1011.61 1011.85 1012.17 1012.25 1012.49 1012.65 1012.85 1013.01 1013.25 1013.53 1013.77 1013.89 1014.05 1014.09 1014.01 1014.21 1014.41 1014.49 1014.57 1014.65 1014.73 1014.77 1014.81 1014.73 1014.53 1014.37 1014.13 1013.93 1013.73 1013.49 1013.49 1013.45 1013.33 1013.13 1012.97 1012.85 1012.73 1012.53 1012.37 1012.17 1011.93
1011.49 1011.77 1012.09 1012.29 1012.49 1012.61 1012.77 1012.97 1013.29 1013.57 1013.85 1014.05 1014.21 1014.17 1014.21 1014.41 1014.65 1014.65 1014.77 1014.73 1014.81 1014.93 1015.01 1014.97 1014.85 1014.61 1014.49 1014.33 1014.17 1013.93 1013.69 1013.53 1013.53 1013.41 1013.25 1013.05 1012.89 1012.69 1012.53 1012.33 1012.13 1011.97
1011.57 1011.89 1012.25 1012.49 1012.57 1012.73 1012.93 1013.29 1013.57 1013.93 1014.05 1014.13 1014.33 1014.45 1014.57 1014.73 1014.73 1014.81 1014.81 1014.89 1014.97 1015.09 1015.17 1015.09 1014.93 1014.77 1014.65 1014.49 1014.29 1014.05 1013.81 1013.65 1013.65 1013.49 1013.33 1013.13 1012.93 1012.69 1012.45 1012.25 1012.09 1011.97
1011.73 1012.01 1012.33 1012.53 1012.65 1012.85 1013.17 1013.53 1013.77 1014.01 1014.29 1014.49 1014.57 1014.69 1014.77 1014.85 1014.85 1014.89 1014.93 1014.97 1015.13 1015.25 1015.21 1015.25 1015.09 1014.85 1014.69 1014.49 1014.33 1014.13 1013.93 1013.73 1013.73 1013.57 1013.41 1013.17 1012.89 1012.65 1012.37 1012.09 1011.93 1011.77
1011.69 1012.05 1012.37 1012.61 1012.81 1013.09 1013.37 1013.69 1014.05 1014.37 1014.57 1014.61 1014.69 1014.81 1014.85 1014.89 1014.93 1014.97 1015.09 1015.13 1015.21 1015.25 1015.33 1015.33 1015.13 1014.89 1014.73 1014.57 1014.41 1014.21 1013.97 1013.89 1013.77 1013.61 1013.41 1013.17 1012.85 1012.57 1012.25 1011.93 1011.73 1011.57
1011.69 1012.05 1012.45 1012.77 1013.01 1013.29 1013.69 1014.09 1014.37 1014.53 1014.65 1014.65 1014.93 1015.05 1015.05 1015.09 1015.21 1015.21 1015.21 1015.21 1015.29 1015.37 1015.41 1015.33 1015.17 1014.89 1014.77 1014.61 1014.49 1014.29 1014.01 1013.97 1013.85 1013.65 1013.41 1013.09 1012.81 1012.49 1012.17 1011.89 1011.61 1011.45
1011.85 1012.17 1012.65 1013.01 1013.29 1013.77 1014.05 1014.25 1014.33 1014.49 1014.65 1014.69 1014.93 1015.09 1015.21 1015.33 1015.33 1015.37 1015.33 1015.33 1015.37 1015.45 1015.41 1015.41 1015.25 1014.93 1014.81 1014.69 1014.57 1014.37 1014.09 1014.01 1013.89 1013.73 1013.41 1013.17 1012.85 1012.45 1012.13 1011.85 1011.53 1011.29
1012.09 1012.41 1012.85 1013.33 1013.81 1014.05 1014.13 1014.29 1014.41 1014.57 1014.73 1014.81 1014.93 1015.05 1015.29 1015.41 1015.49 1015.57 1015.57 1015.57 1015.53 1015.49 1015.33 1015.37 1015.29 1015.05 1014.85 1014.77 1014.57 1014.37 1014.13 1013.93 1013.89 1013.73 1013.49 1013.21 1013.01 1012.57 1012.17 1011.97 1011.77 1011.53
1012.17 1012.61 1013.13 1013.61 1013.93 1014.09 1014.21 1014.33 1014.41 1014.65 1014.85 1014.97 1015.13 1015.25 1015.49 1015.61 1015.61 1015.69 1015.77 1015.77 1015.69 1015.61 1015.49 1015.37 1015.29 1015.13 1014.89 1014.73 1014.61 1014.41 1014.25 1014.01 1013.89 1013.69 1013.57 1013.37 1013.13 1012.77 1012.45 1012.13 1011.93 1011.81
Wind_Speed
8 7 8 7 7 7 7 6 6 6 6 5 6 7 8 9 9 9 8 8 9 9 9 9 8 8 9 9 8 8 8 9 9 8 9 9 9 10 9 9 8 7
9 8 6 6 6 6 6 6 6 6 7 6 7 8 8 7 9 8 9 8 8 9 9 9 8 9 9 8 9 8 8 8 10 7 8 9 9 9 10 9 5 1
8 7 8 8 8 9 9 7 6 6 7 8 8 7 8 7 9 9 9 8 8 9 8 7 6 7 8 8 7 6 7 7 9 8 6 7 6 7 8 3 1 3
9 9 9 9 8 9 8 7 7 8 8 8 10 9 7 7 4 5 5 6 6 7 5 4 5 4 4 5 5 6 5 6 6 4 4 4 3 3 4 4 2 5
10 9 8 8 8 8 8 8 9 9 9 9 7 5 5 5 5 6 6 5 5 4 2 1 0 0 1 1 1 1 2 1 5 6 5 5 5 4 3 4 6 6
8 8 8 8 9 8 7 8 9 8 6 5 7 5 4 2 1 1 2 2 2 3 4 5 6 6 5 6 5 5 5 5 6 7 6 5 5 4 4 5 6 5
9 8 8 9 8 5 6 8 4 1 0 1 3 4 3 5 4 4 5 5 6 7 8 8 7 7 6 5 6 5 5 4 3 4 4 4 3 4 5 4 3 5
8 7 8 5 4 7 6 1 4 3 3 5 6 4 4 5 6 6 7 9 9 10 11 11 10 10 10 8 7 5 6 5 5 4 5 4 3 3 5 4 3 1
5 4 4 5 3 2 5 6 4 5 4 7 6 5 6 7 8 8 8 9 11 11 11 10 10 10 9 9 9 9 8 7 7 6 6 6 6 5 5 4 3 3
4 3 3 6 8 6 7 6 6 5 5 7 6 7 8 7 8 8 9 10 11 10 10 9 10 9 9 9 8 8 8 8 9 8 7 7 7 7 7 7 7 5
3 4 7 8 9 7 8 7 7 6 6 7 7 8 7 7 7 8 10 10 10 9 9 10 9 8 8 8 7 7 8 7 7 7 7 6 4 3 5 5 6 6
6 7 8 9 9 9 8 8 7 7 7 6 6 8 7 7 8 9 9 10 10 9 9 8 8 7 7 7 6 6 5 5 5 5 6 6 6 6 5 4 5 5
8 7 8 8 8 9 8 8 8 7 8 7 6 7 8 8 10 11 9 9 9 8 8 7 7 6 6 5 5 4 4 4 5 4 5 5 5 6 6 5 5 5
8 8 8 9 8 9 9 8 7 8 7 6 7 9 8 9 9 10 8 8 7 7 6 6 6 6 5 5 4 3 4 4 4 4 4 4 4 5 6 6 6 6
8 8 8 9 9 9 9 9 8 8 7 7 8 8 8 9 9 9 9 9 7 7 6 5 6 6 5 6 6 7 6 6 6 6 6 6 6 6 6 6 6 6
9 9 9 9 10 10 8 8 8 8 8 9 9 8 8 8 9 8 8 7 7 6 6 6 6 5 10 13 10 7 5 4 4 4 4 5 5 5 5 5 5 5
10 9 9 10 9 9 8 8 8 8 8 8 8 8 8 8 8 8 7 6 7 7 7 6 5 6 11 10 11 14 8 5 5 5 4 4 4 5 5 6 5 5
10 10 10 9 9 9 9 8 8 8 8 8 8 9 8 8 9 7 6 6 5 5 5 4 4 8 10 11 12 13 12 6 5 5 5 5 5 5 6 6 6 6
10 11 10 9 9 9 8 8 8 9 9 9 9 7 8 9 6 5 4 3 4 5 5 4 3 10 10 13 13 13 13 9 5 5 5 6 6 6 6 6 6 6
10 11 10 9 8 9 9 9 9 9 8 8 7 7 7 6 5 4 3 3 4 4 3 3 3 10 11 12 12 13 12 9 5 6 5 5 6 6 6 6 6 5
11 11 10 9 9 8 9 9 9 9 8 6 6 6 5 5 4 4 3 3 3 3 2 3 5 12 11 12 11 11 11 8 5 5 5 5 6 6 7 7 6 5
11 11 10 9 9 9 10 10 9 8 7 6 5 5 4 4 4 4 4 4 3 3 2 3 3 10 10 10 10 10 10 5 5 5 5 5 6 6 7 7 6 5
11 11 10 9 9 10 10 9 8 7 6 5 6 5 5 5 5 4 4 4 3 2 2 3 3 6 8 8 8 11 7 5 4 5 5 5 6 6 6 6 5 4
10 10 10 9 9 9 8 7 6 6 6 5 7 6 6 5 4 5 4 4 4 3 3 3 4 6 8 9 9 10 8 4 5 5 6 6 7 6 5 5 8 17
10 10 10 9 8 7 7 7 7 6 5 5 6 6 6 5 5 5 5 5 4 3 7 4 3 5 7 8 10 10 9 4 5 4 5 6 6 7 5 6 7 9
9 10 8 8 8 7 7 7 6 6 6 7 6 6 6 5 4 5 5 4 3 3 3 3 3 4 5 10 11 11 12 7 5 6 7 7 6 6 7 6 6 6
Wind_Direction
201 204 212 217 222 221 228 229 232 232 242 235 210 217 216 225 227 228 224 220 222 226 229 228 224 222 226 227 228 231 232 233 237 237 234 234 235 235 234 226 223 229
206 206 215 219 237 240 236 227 232 222 238 235 233 237 240 238 242 235 238 232 223 226 230 228 220 220 224 227 229 228 236 238 244 239 237 236 237 237 241 233 193 357
206 208 211 217 224 235 239 238 235 235 237 240 240 238 245 244 250 252 250 250 247 243 240 235 225 223 226 231 231 230 236 242 246 247 244 247 252 248 250 289 84 170
211 209 211 219 223 230 235 237 241 242 245 251 248 246 247 265 281 280 275 268 257 254 248 228 229 238 240 243 240 237 243 247 256 275 269 269 285 323 348 340 321 60
207 210 215 219 223 227 229 232 239 241 243 249 272 288 289 275 264 252 246 250 245 238 208 208 160 241 239 239 218 254 288 305 20 23 29 21 25 18 338 350 17 51
209 210 214 217 224 226 227 235 241 246 257 265 253 264 279 303 345 10 51 72 82 86 67 51 43 26 26 42 56 46 31 31 29 30 26 19 14 1 337 12 28 68
209 207 216 222 229 225 229 238 262 315 154 142 71 51 63 68 64 63 65 67 65 63 62 55 49 40 35 54 62 52 26 10 43 28 13 356 23 335 349 7 32 73
211 207 220 232 236 233 241 313 87 100 88 78 72 47 56 59 48 43 50 52 54 54 54 50 46 40 33 35 40 26 9 8 23 23 9 3 359 355 340 345 345 11
208 217 212 218 225 61 87 98 90 77 66 79 73 66 56 59 62 62 60 61 58 54 54 50 47 46 39 39 35 27 18 10 10 13 3 4 357 349 334 326 334 341
177 178 104 92 92 93 88 83 83 70 66 70 68 66 66 62 61 61 63 64 64 60 56 56 52 50 47 40 35 31 25 17 13 17 19 12 2 357 347 347 340 339
117 94 93 92 94 92 87 82 78 76 67 70 72 69 64 66 64 64 66 64 65 62 61 58 55 53 51 43 36 30 27 18 8 2 357 353 348 341 341 335 331 328
112 106 100 101 99 92 89 85 81 78 76 68 71 75 69 64 70 70 70 72 71 69 68 65 61 57 54 48 38 26 24 15 2 352 342 336 330 332 328 326 323 319
113 109 107 101 96 95 92 86 80 78 75 72 68 73 71 73 74 77 71 75 73 72 67 64 63 59 54 46 36 26 12 7 350 339 332 325 324 321 322 322 320 316
108 108 102 101 98 94 88 85 79 74 73 73 69 65 63 74 81 81 78 73 71 70 65 60 55 51 44 35 29 16 4 354 343 332 325 320 323 326 329 334 334 335
106 97 96 93 91 87 83 81 79 76 70 66 65 68 70 77 86 86 85 79 70 68 65 55 50 39 31 21 11 5 359 344 335 329 326 330 331 334 336 336 336 339
100 97 93 90 85 83 82 80 78 75 73 72 70 70 75 81 84 83 79 83 81 68 61 52 43 34 25 21 13 359 340 332 329 328 332 330 331 332 331 329 330 331
98 95 92 87 89 86 81 77 76 78 77 75 73 70 71 81 87 82 77 70 68 62 54 50 40 28 16 7 5 3 5 2 354 346 340 336 333 334 329 328 325 323
101 98 93 92 89 85 83 83 82 79 77 75 73 71 70 71 70 71 71 68 68 68 61 47 36 19 6 6 3 8 12 15 349 344 338 337 335 329 326 321 320 321
103 99 97 93 90 90 88 84 80 76 78 81 76 74 70 68 75 82 91 93 83 76 61 38 21 12 6 7 4 7 8 10 352 340 338 333 326 324 319 318 317 320
104 101 98 98 96 92 89 85 82 84 83 81 83 77 79 81 80 86 88 89 86 79 66 27 11 12 11 10 7 7 2 4 347 336 329 322 319 317 313 312 313 312
107 105 105 103 99 95 90 87 87 84 81 86 91 92 93 90 78 69 65 75 93 96 81 37 16 19 15 12 6 356 349 355 333 325 318 316 314 312 311 306 306 304
114 112 110 108 102 94 92 92 91 98 104 105 98 90 81 79 64 62 55 61 83 101 77 30 11 23 12 8 357 345 347 347 337 332 324 317 312 313 316 313 310 307
117 115 112 107 102 98 100 106 111 111 114 114 101 97 90 74 72 61 57 64 76 90 62 16 357 10 7 355 350 347 341 346 333 326 325 325 325 321 311 313 304 328
112 111 110 105 102 110 118 119 117 116 118 112 109 104 89 86 78 69 53 49 56 68 56 30 358 353 4 352 353 348 351 348 339 337 333 338 329 321 319 338 351 17
110 109 108 109 116 123 125 124 123 124 118 108 106 98 96 94 86 76 61 44 40 38 46 43 351 338 352 353 358 358 357 349 348 335 345 344 338 331 344 354 -0 6
115 112 112 120 127 128 124 125 126 114 112 108 100 98 99 94 87 78 77 62 46 32 6 348 350 345 345 354 1 359 356 350 349 358 355 343 338 343 349 360 4 3